Regional Weather Roundup
Issued by NWS

Home | Current Version | Previous Version | Graphics & Text | Print | Product List | Glossary On
Versions: 1 2 3 4 5 6 7 8 9 10 11 12 13 14 15 16 17 18 19 20 21 22 23 24 25 26 27 28 29 30 31 32 33 34 35 36 37 38 39 40 41 42 43 44 45 46 47 48 49 50
000
ASUS43 KDMX 241706
RWRIA

WEATHER ROUNDUP FOR IOWA
NATIONAL WEATHER SERVICE DES MOINES IA
1200 PM CDT WED MAY 24 2017

NOTE: "FAIR" INDICATES FEW OR NO CLOUDS BELOW 12,000 FEET WITH NO
SIGNIFICANT WEATHER AND/OR OBSTRUCTIONS TO VISIBILITY.

* - THESE STATIONS ARE NOT NWS STATIONS...THUS NOT UNDER NWS
QUALITY CONTROL.  THEY ALSO DO NOT REPORT WEATHER SUCH
AS PRECIPITATION OR FOG.

IAZ001>003-012>014-020>022-031>034-043>046-241800-
   NORTHWEST IOWA

CITY           SKY/WX    TMP DP  RH WIND       PRES   REMARKS
CARROLL *      CLOUDY    59  50  72 N15       29.72F
CHEROKEE *       N/A     59  50  72 NE8       29.75F
DENISON *      PTSUNNY   57  46  67 N9        29.75F
LE MARS *      PTSUNNY   57  48  72 N9        29.77F
ORANGE CITY *    N/A     55  48  76 N8        29.76F
SHELDON *      PTSUNNY   55  48  76 VRB5G12     N/A
SIOUX CITY       N/A     59  49  69 NE8       29.76F
SPENCER          N/A     59  46  62 NE13      29.75S
STORM LAKE *     N/A     57  46  67 N10       29.75S
$$

IAZ055>058-069>071-079>083-090>094-241800-
   SOUTHWEST IOWA

CITY           SKY/WX    TMP DP  RH WIND       PRES   REMARKS
ATLANTIC *     PTSUNNY   57  48  72 N15G22    29.72F
AUDUBON *      PTSUNNY   57  48  72 N9G16     29.73F
CLARINDA *     PTSUNNY   63  48  59 N17       29.73F
COUNCIL BLFS *   N/A     59  48  67 N8G21     29.74S
CRESTON *      CLOUDY    55  50  82 N13G18    29.71F
HARLAN  *      PTSUNNY   59  50  72 N14       29.77S
LAMONI         CLOUDY    58  51  78 N14G21    29.68S
RED OAK *        N/A     63  50  63 N16G22    29.73S
SHENANDOAH *   PTSUNNY   63  46  55 N14G22    29.73F
$$

IAZ047>049-059>061-072>074-084-241800-
   CENTRAL IOWA

CITY           SKY/WX    TMP DP  RH WIND       PRES   REMARKS
AMES           CLOUDY    55  50  83 N15       29.70S
ANKENY *       CLOUDY    54  50  87 N13       29.71S
BOONE *        CLOUDY    55  52  88 N12       29.70S
CHARITON *     CLOUDY    55  52  88 N13       29.67S
DES MOINES     CLOUDY    56  50  80 N10       29.69S
GRINNELL*      CLOUDY    57  51  79 N12G17    29.68S
KNOXVILLE *    CLOUDY    55  50  82 N12       29.66S
MARSHALLTOWN   CLOUDY    55  50  83 N15       29.68S
NEWTON *       CLOUDY    55  50  82 N14       29.67S
PELLA *        CLOUDY    58  49  72 N9G16     29.68S
PERRY *        CLOUDY    57  52  81 N8        29.71F
$$

IAZ004>006-015-016-023>025-035-036-241800-
   NORTH CENTRAL IOWA

CITY           SKY/WX    TMP DP  RH WIND       PRES   REMARKS
ALGONA *       PTSUNNY   54  50  87 N14       29.74S
CLARION *      CLOUDY    57  52  82 N14       29.72S
ESTHERVILLE    PTSUNNY   55  48  77 N13       29.74F
FORT DODGE *   PTSUNNY   57  50  77 N9        29.73F
MASON CITY     CLOUDY    54  48  80 N13       29.74S
FOREST CITY *  CLOUDY    57  45  62 N9        29.73F
WEBSTER CITY * CLOUDY    57  50  77 N12       29.69F
IOWA FALLS *   CLOUDY    56  49  80 N10       29.71F
$$

IAZ007>011-017>019-026>030-037>042-050>054-066-241800-
   NORTHEAST IOWA

CITY           SKY/WX    TMP DP  RH WIND       PRES   REMARKS
CEDAR RAPIDS   CLOUDY    56  51  84 N13       29.64S
CHARLES CITY * CLOUDY    57  52  82 N13       29.70F
CLINTON *      CLOUDY    58  53  84 N10       29.63S
DECORAH *      CLOUDY    52  48  87 N12       29.69S
DUBUQUE        CLOUDY    54  49  83 N10       29.64S
MONTICELLO *   CLOUDY    57  50  77 NE8G15    29.64S
OELWEIN *      CLOUDY    55  50  82 N14G21    29.68S
WATERLOO       CLOUDY    55  48  77 N12       29.68S
$$

IAZ064-065-067-068-078-241800-
   EAST CENTRAL IOWA

CITY           SKY/WX    TMP DP  RH WIND       PRES   REMARKS
DAVENPORT      CLOUDY    57  49  74 N10       29.63R
IOWA CITY      CLOUDY    59  50  72 N10       29.65S
MT. PLEASANT * CLOUDY    59  51  74 NE10      29.63F
MUSCATINE *    CLOUDY    61  50  67 N14       29.62F
QUAD CITIES    CLOUDY    60  49  66 N12       29.60S
$$

IAZ062-063-075>077-085>089-095>099-241800-
   SOUTHEAST IOWA

CITY           SKY/WX    TMP DP  RH WIND       PRES   REMARKS
BURLINGTON     CLOUDY    59  53  80 N7        29.61F
FAIRFIELD *    CLOUDY    59  50  72 N10       29.63S
FORT MADISON * PTSUNNY   59  54  82 N10G17    29.63S
KEOKUK *       CLOUDY    61  52  72 NW8G17    29.61F
OSKALOOSA *    CLOUDY    56  51  81 N13       29.66S
CENTERVILLE *  PTSUNNY   57  50  77 N13G18    29.66S
OTTUMWA        LGT RAIN  57  54  89 N12       29.65R
WASHINGTON *   PTSUNNY   61  52  72 N20       29.64S
$$

ABBREVIATIONS USED IN REMARKS
   TC - TEMPERATURES IN CELSIUS
  WCI - WIND CHILL INDEX
   HX - HEAT INDEX
  VSB - VISIBILITY
$$





USA.gov is the U.S. government's official web portal to all federal, state and local government web resources and services.